Regional Weather Roundup
Issued by NWS Sioux Falls, SD

Home | Current Version | Previous Version | Graphics & Text | Print | Product List | Glossary On
Versions: 1 2 3 4 5 6 7 8 9 10 11 12 13 14 15 16 17 18 19 20 21 22 23 24 25 26 27 28 29 30 31 32 33 34 35 36 37 38 39 40 41 42 43 44 45 46 47 48 49 50
219
ASUS43 KFSD 261810
RWRFSD

WEATHER ROUNDUP FOR SE SOUTH DAKOTA/SW MINNESOTA/NW IOWA
NATIONAL WEATHER SERVICE SIOUX FALLS SD
100 PM CDT THU MAY 26 2016

NOTE: "FAIR" INDICATES FEW OR NO CLOUDS BELOW 12,000 FEET WITH NO
SIGNIFICANT WEATHER AND OR OBSTRUCTIONS TO VISIBILITY.


SDZ038>040-050-052>070-261900-
SOUTHEAST SOUTH DAKOTA

CITY           SKY/WX    TMP DP  RH WIND       PRES   REMARKS
BROOKINGS      SUNNY     72  50  45 W9        29.88S
CHAMBERLAIN    CLOUDY    73  57  57 S7        29.87F
6HR MIN TEMP:  56; 6HR MAX TEMP:  74;

HURON          MOSUNNY   72  53  51 SW8       29.87F
6HR MIN TEMP:  54; 6HR MAX TEMP:  72;

MADISON        FAIR      68  54  60 NW8       29.89F
MITCHELL       MOSUNNY   73  52  47 CALM      29.87F
6HR MIN TEMP:  57; 6HR MAX TEMP:  74;

SIOUX FALLS    CLOUDY    74  53  48 N6        29.86F
6HR MIN TEMP:  56; 6HR MAX TEMP:  74;

WINNER         FAIR      73  55  53 S14       29.86F
YANKTON        MOSUNNY   68  54  60 SE7       29.88S
$$

MNZ071-072-080-081-089-090-097-098-261900-
SOUTHWEST MINNESOTA

CITY           SKY/WX    TMP DP  RH WIND       PRES   REMARKS
FAIRMONT       SUNNY     75  50  41 W8        29.87S
JACKSON        SUNNY     73  48  40 NW9       29.89R
LUVERNE        CLOUDY    72  45  37 N7        29.84F
MARSHALL       SUNNY     76  49  38 NW10G18   29.86S
6HR MIN TEMP:  58; 6HR MAX TEMP:  76;

MONTEVIDEO     SUNNY     79  46  31 N13       29.85R
PIPESTONE      MOSUNNY   72  48  43 NW9       29.89F
REDWOOD FALLS  SUNNY     77  47  34 VRB7      29.84R
TRACY          SUNNY     77  48  35 W9        29.87S
WINDOM         SUNNY     75  48  38 CALM      29.88S
WORTHINGTON      N/A     72  50  45 W9        29.88F
$$

IAZ001>003-012>014-020>022-031-032-NEZ013-014-SDZ071-261900-
NORTHWEST IOWA

CITY           SKY/WX    TMP DP  RH WIND       PRES   REMARKS
CHEROKEE       SUNNY     73  61  64 CALM      29.89S
DENISON        SUNNY     77  59  53 CALM      29.87F
ESTHERVILLE    SUNNY     73  55  53 NW5       29.88S
LE MARS        SUNNY     73  59  60 CALM      29.89S
ORANGE CITY    MOSUNNY   73  52  46 CALM      29.89S
SHELDON        CLOUDY    72  54  53 CALM      29.87S
SIOUX CITY     SUNNY     77  60  55 E6        29.87F
6HR MIN TEMP:  58; 6HR MAX TEMP:  77;

SPENCER        SUNNY     74  53  48 CALM      29.89S
6HR MIN TEMP:  59; 6HR MAX TEMP:  74;

STORM LAKE       N/A     73  59  60 VRB5      29.91S
$$

ABBREVIATIONS USED IN REMARKS
   TC - TEMPERATURE IN CELSIUS
  WCI - WIND CHILL INDEX
   HX - HEAT INDEX
  VSB - VISIBILITY





USA.gov is the U.S. government's official web portal to all federal, state and local government web resources and services.